Time,TemperatureF,DewpointF,PressureIn,WindDirection,WindDirectionDegrees,WindSpeedMPH,WindSpeedGustMPH,Humidity,HourlyPrecipIn,Conditions,Clouds,dailyrainin,SoftwareType,DateUTC
2013-03-18 00:03:00,32.0,-99.9,-100.00,South,186,29.0,-999.0,0,-99.99,,,-99.99,,2013-03-18 05:03:00,
2013-03-18 00:13:00,32.0,-99.9,-100.00,South,179,32.0,-999.0,0,-99.99,,,-99.99,,2013-03-18 05:13:00,
2013-03-18 00:23:00,32.0,-99.9,-100.00,South,176,27.0,-999.0,0,-99.99,,,-99.99,,2013-03-18 05:23:00,
2013-03-18 00:33:00,33.0,-99.9,-100.00,South,188,32.0,-999.0,0,-99.99,,,-99.99,,2013-03-18 05:33:00,
2013-03-18 00:43:00,33.0,-99.9,-100.00,SSW,194,37.0,-999.0,0,-99.99,,,-99.99,,2013-03-18 05:43:00,
2013-03-18 00:52:00,33.0,-99.9,-100.00,South,190,31.0,-999.0,0,-99.99,,,-99.99,,2013-03-18 05:52:00,
2013-03-18 01:02:00,33.0,-99.9,-100.00,SSW,196,35.0,-999.0,0,-99.99,,,-99.99,,2013-03-18 06:02:00,
2013-03-18 01:12:00,33.0,-99.9,-100.00,SSW,196,26.0,-999.0,0,-99.99,,,-99.99,,2013-03-18 06:12:00,
2013-03-18 01:22:00,33.0,-99.9,-100.00,SSW,200,26.0,-999.0,0,-99.99,,,-99.99,,2013-03-18 06:22:00,
2013-03-18 01:32:00,33.0,-99.9,-100.00,South,191,26.0,-999.0,0,-99.99,,,-99.99,,2013-03-18 06:32:00,
2013-03-18 01:42:00,33.0,-99.9,-100.00,SSW,194,34.0,-999.0,0,-99.99,,,-99.99,,2013-03-18 06:42:00,
2013-03-18 01:53:00,33.0,-99.9,-100.00,South,187,33.0,-999.0,0,-99.99,,,-99.99,,2013-03-18 06:53:00,
2013-03-18 02:03:00,33.0,-99.9,-100.00,South,187,37.0,-999.0,0,-99.99,,,-99.99,,2013-03-18 07:03:00,
2013-03-18 02:13:00,33.0,-99.9,-100.00,SSW,201,27.0,-999.0,0,-99.99,,,-99.99,,2013-03-18 07:13:00,
2013-03-18 02:23:00,33.0,-99.9,-100.00,SSW,197,26.0,-999.0,0,-99.99,,,-99.99,,2013-03-18 07:23:00,
2013-03-18 02:33:00,33.0,-99.9,-100.00,SSW,200,23.0,-999.0,0,-99.99,,,-99.99,,2013-03-18 07:33:00,
2013-03-18 02:43:00,33.0,-99.9,-100.00,SSW,203,34.0,-999.0,0,-99.99,,,-99.99,,2013-03-18 07:43:00,
2013-03-18 02:53:00,33.0,-99.9,-100.00,SSW,200,27.0,-999.0,0,-99.99,,,-99.99,,2013-03-18 07:53:00,
2013-03-18 03:03:00,33.0,-99.9,-100.00,SSW,209,30.0,-999.0,0,-99.99,,,-99.99,,2013-03-18 08:03:00,
2013-03-18 03:12:00,33.0,-99.9,-100.00,SSW,203,23.0,-999.0,0,-99.99,,,-99.99,,2013-03-18 08:12:00,
2013-03-18 03:22:00,33.0,-99.9,-100.00,SSW,206,21.0,-999.0,0,-99.99,,,-99.99,,2013-03-18 08:22:00,
2013-03-18 03:32:00,33.0,-99.9,-100.00,SSW,206,21.0,-999.0,0,-99.99,,,-99.99,,2013-03-18 08:32:00,
2013-03-18 03:43:00,33.0,-99.9,-100.00,West,270,10.0,-999.0,0,-99.99,,,-99.99,,2013-03-18 08:43:00,
2013-03-18 03:53:00,33.0,-99.9,-100.00,West,275,11.0,-999.0,0,-99.99,,,-99.99,,2013-03-18 08:53:00,
2013-03-18 04:02:00,32.0,-99.9,-100.00,WNW,295,15.0,-999.0,0,-99.99,,,-99.99,,2013-03-18 09:02:00,
2013-03-18 04:13:00,31.0,-99.9,-100.00,WNW,291,20.0,-999.0,0,-99.99,,,-99.99,,2013-03-18 09:13:00,
2013-03-18 04:23:00,31.0,-99.9,-100.00,WNW,284,17.0,-999.0,0,-99.99,,,-99.99,,2013-03-18 09:23:00,
2013-03-18 04:33:00,31.0,-99.9,-100.00,WNW,285,20.0,-999.0,0,-99.99,,,-99.99,,2013-03-18 09:33:00,
2013-03-18 04:43:00,30.0,-99.9,-100.00,West,281,21.0,-999.0,0,-99.99,,,-99.99,,2013-03-18 09:43:00,
2013-03-18 04:53:00,30.0,-99.9,-100.00,NW,312,29.0,-999.0,0,-99.99,,,-99.99,,2013-03-18 09:53:00,
2013-03-18 05:04:00,29.0,-99.9,-100.00,NW,313,19.0,-999.0,0,-99.99,,,-99.99,,2013-03-18 10:04:00,
2013-03-18 05:13:00,27.0,-99.9,-100.00,NW,323,31.0,-999.0,0,-99.99,,,-99.99,,2013-03-18 10:13:00,
2013-03-18 05:23:00,26.0,-99.9,-100.00,NW,325,17.0,-999.0,0,-99.99,,,-99.99,,2013-03-18 10:23:00,
2013-03-18 05:33:00,26.0,-99.9,-100.00,NNW,338,7.0,-999.0,0,-99.99,,,-99.99,,2013-03-18 10:33:00,
2013-03-18 05:42:00,23.0,-99.9,-100.00,NW,312,34.0,-999.0,0,-99.99,,,-99.99,,2013-03-18 10:42:00,
2013-03-18 05:53:00,23.0,-99.9,-100.00,NW,319,24.0,-999.0,0,-99.99,,,-99.99,,2013-03-18 10:53:00,
2013-03-18 06:03:00,22.0,-99.9,-100.00,NW,322,28.0,-999.0,0,-99.99,,,-99.99,,2013-03-18 11:03:00,
2013-03-18 06:13:00,21.0,-99.9,-100.00,NW,308,16.0,-999.0,0,-99.99,,,-99.99,,2013-03-18 11:13:00,
2013-03-18 06:22:00,20.0,-99.9,-100.00,NW,307,35.0,-999.0,0,-99.99,,,-99.99,,2013-03-18 11:22:00,
2013-03-18 06:32:00,19.0,-99.9,-100.00,NW,310,23.0,-999.0,0,-99.99,,,-99.99,,2013-03-18 11:32:00,
2013-03-18 06:43:00,18.0,-99.9,-100.00,NW,316,27.0,-999.0,0,-99.99,,,-99.99,,2013-03-18 11:43:00,
2013-03-18 06:53:00,18.0,-99.9,-100.00,NW,323,29.0,-999.0,0,-99.99,,,-99.99,,2013-03-18 11:53:00,
2013-03-18 07:03:00,18.0,-99.9,-100.00,NW,323,29.0,-999.0,0,-99.99,,,-99.99,,2013-03-18 12:03:00,
2013-03-18 07:13:00,17.0,-99.9,-100.00,NW,319,18.0,-999.0,0,-99.99,,,-99.99,,2013-03-18 12:13:00,
2013-03-18 07:22:00,17.0,-99.9,-100.00,NW,319,18.0,-999.0,0,-99.99,,,-99.99,,2013-03-18 12:22:00,
2013-03-18 07:33:00,17.0,-99.9,-100.00,NW,314,20.0,-999.0,0,-99.99,,,-99.99,,2013-03-18 12:33:00,
2013-03-18 07:43:00,16.0,-99.9,-100.00,NNW,330,32.0,-999.0,0,-99.99,,,-99.99,,2013-03-18 12:43:00,
2013-03-18 07:52:00,16.0,-99.9,-100.00,NW,312,24.0,-999.0,0,-99.99,,,-99.99,,2013-03-18 12:52:00,
2013-03-18 08:03:00,15.0,-99.9,-100.00,NW,316,34.0,-999.0,0,-99.99,,,-99.99,,2013-03-18 13:03:00,
2013-03-18 08:12:00,15.0,-99.9,-100.00,NW,322,21.0,-999.0,0,-99.99,,,-99.99,,2013-03-18 13:12:00,
2013-03-18 08:23:00,15.0,-99.9,-100.00,NNW,334,26.0,-999.0,0,-99.99,,,-99.99,,2013-03-18 13:23:00,
2013-03-18 08:33:00,15.0,-99.9,-100.00,NNW,328,28.0,-999.0,0,-99.99,,,-99.99,,2013-03-18 13:33:00,
2013-03-18 08:43:00,15.0,-99.9,-100.00,NW,318,18.0,-999.0,0,-99.99,,,-99.99,,2013-03-18 13:43:00,
2013-03-18 08:52:00,15.0,-99.9,-100.00,NW,316,27.0,-999.0,0,-99.99,,,-99.99,,2013-03-18 13:52:00,
2013-03-18 09:03:00,14.0,-99.9,-100.00,NW,316,30.0,-999.0,0,-99.99,,,-99.99,,2013-03-18 14:03:00,
2013-03-18 09:13:00,14.0,-99.9,-100.00,NNW,332,36.0,-999.0,0,-99.99,,,-99.99,,2013-03-18 14:13:00,
2013-03-18 09:22:00,14.0,-99.9,-100.00,NNW,327,28.0,-999.0,0,-99.99,,,-99.99,,2013-03-18 14:22:00,
2013-03-18 09:32:00,14.0,-99.9,-100.00,NNW,333,31.0,-999.0,0,-99.99,,,-99.99,,2013-03-18 14:32:00,
2013-03-18 09:42:00,13.0,-99.9,-100.00,NW,325,28.0,-999.0,0,-99.99,,,-99.99,,2013-03-18 14:42:00,
2013-03-18 09:52:00,13.0,-99.9,-100.00,NW,318,34.0,-999.0,0,-99.99,,,-99.99,,2013-03-18 14:52:00,
2013-03-18 10:02:00,13.0,-99.9,-100.00,NNW,338,32.0,-999.0,0,-99.99,,,-99.99,,2013-03-18 15:02:00,
2013-03-18 10:12:00,13.0,-99.9,-100.00,NW,320,25.0,-999.0,0,-99.99,,,-99.99,,2013-03-18 15:12:00,
2013-03-18 10:23:00,12.0,-99.9,-100.00,NNW,339,23.0,-999.0,0,-99.99,,,-99.99,,2013-03-18 15:23:00,
2013-03-18 10:33:00,12.0,-99.9,-100.00,NW,312,34.0,-999.0,0,-99.99,,,-99.99,,2013-03-18 15:33:00,
2013-03-18 10:43:00,12.0,-99.9,-100.00,NNW,340,21.0,-999.0,0,-99.99,,,-99.99,,2013-03-18 15:43:00,
2013-03-18 10:52:00,12.0,-99.9,-100.00,WNW,297,26.0,-999.0,0,-99.99,,,-99.99,,2013-03-18 15:52:00,
2013-03-18 11:03:00,12.0,-99.9,-100.00,NW,314,38.0,-999.0,0,-99.99,,,-99.99,,2013-03-18 16:03:00,
2013-03-18 11:12:00,12.0,-99.9,-100.00,NNW,331,22.0,-999.0,0,-99.99,,,-99.99,,2013-03-18 16:12:00,
2013-03-18 11:23:00,11.0,-99.9,-100.00,NNW,336,36.0,-999.0,0,-99.99,,,-99.99,,2013-03-18 16:23:00,
2013-03-18 11:33:00,12.0,-99.9,-100.00,NNW,328,37.0,-999.0,0,-99.99,,,-99.99,,2013-03-18 16:33:00,
2013-03-18 11:42:00,12.0,-99.9,-100.00,NNW,332,29.0,-999.0,0,-99.99,,,-99.99,,2013-03-18 16:42:00,
2013-03-18 11:53:00,11.0,-99.9,-100.00,NNW,340,21.0,-999.0,0,-99.99,,,-99.99,,2013-03-18 16:53:00,
2013-03-18 12:03:00,12.0,-99.9,-100.00,NW,319,31.0,-999.0,0,-99.99,,,-99.99,,2013-03-18 17:03:00,
2013-03-18 12:12:00,12.0,-99.9,-100.00,NNW,328,42.0,-999.0,0,-99.99,,,-99.99,,2013-03-18 17:12:00,
2013-03-18 12:22:00,12.0,-99.9,-100.00,NW,326,23.0,-999.0,0,-99.99,,,-99.99,,2013-03-18 17:22:00,
2013-03-18 12:33:00,13.0,-99.9,-100.00,NW,322,28.0,-999.0,0,-99.99,,,-99.99,,2013-03-18 17:33:00,
2013-03-18 12:43:00,13.0,-99.9,-100.00,NNW,331,35.0,-999.0,0,-99.99,,,-99.99,,2013-03-18 17:43:00,
2013-03-18 12:52:00,12.0,-99.9,-100.00,NNW,341,22.0,-999.0,0,-99.99,,,-99.99,,2013-03-18 17:52:00,
2013-03-18 13:03:00,12.0,-99.9,-100.00,NW,321,30.0,-999.0,0,-99.99,,,-99.99,,2013-03-18 18:03:00,
2013-03-18 13:13:00,13.0,-99.9,-100.00,NW,323,30.0,-999.0,0,-99.99,,,-99.99,,2013-03-18 18:13:00,
2013-03-18 13:22:00,13.0,-99.9,-100.00,NW,322,21.0,-999.0,0,-99.99,,,-99.99,,2013-03-18 18:22:00,
2013-03-18 13:32:00,13.0,-99.9,-100.00,NW,318,24.0,-999.0,0,-99.99,,,-99.99,,2013-03-18 18:32:00,
2013-03-18 13:42:00,13.0,-99.9,-100.00,NW,320,23.0,-999.0,0,-99.99,,,-99.99,,2013-03-18 18:42:00,
2013-03-18 13:52:00,13.0,-99.9,-100.00,NW,324,21.0,-999.0,0,-99.99,,,-99.99,,2013-03-18 18:52:00,
2013-03-18 14:03:00,13.0,-99.9,-100.00,NW,324,21.0,-999.0,0,-99.99,,,-99.99,,2013-03-18 19:03:00,
2013-03-18 14:12:00,14.0,-99.9,-100.00,NNW,333,27.0,-999.0,0,-99.99,,,-99.99,,2013-03-18 19:12:00,
2013-03-18 14:22:00,15.0,-99.9,-100.00,NW,322,25.0,-999.0,0,-99.99,,,-99.99,,2013-03-18 19:22:00,
2013-03-18 14:33:00,15.0,-99.9,-100.00,NNW,328,37.0,-999.0,0,-99.99,,,-99.99,,2013-03-18 19:33:00,
2013-03-18 14:42:00,15.0,-99.9,-100.00,NNW,334,37.0,-999.0,0,-99.99,,,-99.99,,2013-03-18 19:42:00,
2013-03-18 14:52:00,14.0,-99.9,-100.00,NNW,333,38.0,-999.0,0,-99.99,,,-99.99,,2013-03-18 19:52:00,
2013-03-18 15:03:00,16.0,-99.9,-100.00,WNW,298,32.0,-999.0,0,-99.99,,,-99.99,,2013-03-18 20:03:00,
2013-03-18 15:12:00,15.0,-99.9,-100.00,NW,326,42.0,-999.0,0,-99.99,,,-99.99,,2013-03-18 20:12:00,
2013-03-18 15:23:00,15.0,-99.9,-100.00,NW,322,25.0,-999.0,0,-99.99,,,-99.99,,2013-03-18 20:23:00,
2013-03-18 15:33:00,15.0,-99.9,-100.00,NNW,338,31.0,-999.0,0,-99.99,,,-99.99,,2013-03-18 20:33:00,
2013-03-18 15:43:00,16.0,-99.9,-100.00,NW,310,40.0,-999.0,0,-99.99,,,-99.99,,2013-03-18 20:43:00,
2013-03-18 15:53:00,16.0,-99.9,-100.00,NNW,335,17.0,-999.0,0,-99.99,,,-99.99,,2013-03-18 20:53:00,
2013-03-18 16:02:00,16.0,-99.9,-100.00,NNW,335,17.0,-999.0,0,-99.99,,,-99.99,,2013-03-18 21:02:00,
2013-03-18 16:12:00,15.0,-99.9,-100.00,NNW,332,41.0,-999.0,0,-99.99,,,-99.99,,2013-03-18 21:12:00,
2013-03-18 16:23:00,16.0,-99.9,-100.00,NNW,330,47.0,-999.0,0,-99.99,,,-99.99,,2013-03-18 21:23:00,
2013-03-18 16:33:00,16.0,-99.9,-100.00,NW,318,27.0,-999.0,0,-99.99,,,-99.99,,2013-03-18 21:33:00,
2013-03-18 16:43:00,17.0,-99.9,-100.00,NW,321,25.0,-999.0,0,-99.99,,,-99.99,,2013-03-18 21:43:00,
2013-03-18 16:53:00,17.0,-99.9,-100.00,NW,325,31.0,-999.0,0,-99.99,,,-99.99,,2013-03-18 21:53:00,
2013-03-18 17:04:00,16.0,-99.9,-100.00,NNW,328,38.0,-999.0,0,-99.99,,,-99.99,,2013-03-18 22:04:00,
2013-03-18 17:13:00,15.0,-99.9,-100.00,NNW,333,35.0,-999.0,0,-99.99,,,-99.99,,2013-03-18 22:13:00,
2013-03-18 17:23:00,16.0,-99.9,-100.00,NNW,328,38.0,-999.0,0,-99.99,,,-99.99,,2013-03-18 22:23:00,
2013-03-18 17:34:00,16.0,-99.9,-100.00,NNW,327,28.0,-999.0,0,-99.99,,,-99.99,,2013-03-18 22:34:00,
2013-03-18 17:43:00,16.0,-99.9,-100.00,NNW,334,32.0,-999.0,0,-99.99,,,-99.99,,2013-03-18 22:43:00,
2013-03-18 17:53:00,17.0,-99.9,-100.00,WNW,303,23.0,-999.0,0,-99.99,,,-99.99,,2013-03-18 22:53:00,
2013-03-18 18:03:00,18.0,-99.9,-100.00,NW,320,28.0,-999.0,0,-99.99,,,-99.99,,2013-03-18 23:03:00,
2013-03-18 18:13:00,18.0,-99.9,-100.00,NNW,340,31.0,-999.0,0,-99.99,,,-99.99,,2013-03-18 23:13:00,
2013-03-18 18:23:00,17.0,-99.9,-100.00,NW,321,28.0,-999.0,0,-99.99,,,-99.99,,2013-03-18 23:23:00,
2013-03-18 18:33:00,17.0,-99.9,-100.00,NNW,331,31.0,-999.0,0,-99.99,,,-99.99,,2013-03-18 23:33:00,
2013-03-18 18:43:00,16.0,-99.9,-100.00,NNW,328,22.0,-999.0,0,-99.99,,,-99.99,,2013-03-18 23:43:00,
2013-03-18 18:53:00,16.0,-99.9,-100.00,NNW,328,17.0,-999.0,0,-99.99,,,-99.99,,2013-03-18 23:53:00,
2013-03-18 19:03:00,16.0,-99.9,-100.00,NNW,328,17.0,-999.0,0,-99.99,,,-99.99,,2013-03-19 00:03:00,
2013-03-18 19:12:00,16.0,-99.9,-100.00,NW,325,24.0,-999.0,0,-99.99,,,-99.99,,2013-03-19 00:12:00,
2013-03-18 19:23:00,16.0,-99.9,-100.00,NW,323,34.0,-999.0,0,-99.99,,,-99.99,,2013-03-19 00:23:00,
2013-03-18 19:33:00,16.0,-99.9,-100.00,NNW,331,26.0,-999.0,0,-99.99,,,-99.99,,2013-03-19 00:33:00,
2013-03-18 19:43:00,16.0,-99.9,-100.00,NNW,331,26.0,-999.0,0,-99.99,,,-99.99,,2013-03-19 00:43:00,
2013-03-18 19:53:00,16.0,-99.9,-100.00,NNW,340,22.0,-999.0,0,-99.99,,,-99.99,,2013-03-19 00:53:00,
2013-03-18 20:02:00,15.0,-99.9,-100.00,NNW,329,31.0,-999.0,0,-99.99,,,-99.99,,2013-03-19 01:02:00,
2013-03-18 20:12:00,15.0,-99.9,-100.00,NNW,335,22.0,-999.0,0,-99.99,,,-99.99,,2013-03-19 01:12:00,
2013-03-18 20:23:00,15.0,-99.9,-100.00,NW,315,16.0,-999.0,0,-99.99,,,-99.99,,2013-03-19 01:23:00,
2013-03-18 20:33:00,14.0,-99.9,-100.00,NNW,329,19.0,-999.0,0,-99.99,,,-99.99,,2013-03-19 01:33:00,
2013-03-18 20:43:00,15.0,-99.9,-100.00,NNW,337,20.0,-999.0,0,-99.99,,,-99.99,,2013-03-19 01:43:00,
2013-03-18 20:53:00,14.0,-99.9,-100.00,NW,318,25.0,-999.0,0,-99.99,,,-99.99,,2013-03-19 01:53:00,
2013-03-18 21:03:00,14.0,-99.9,-100.00,NW,318,25.0,-999.0,0,-99.99,,,-99.99,,2013-03-19 02:03:00,
2013-03-18 21:13:00,14.0,-99.9,-100.00,NW,320,15.0,-999.0,0,-99.99,,,-99.99,,2013-03-19 02:13:00,
2013-03-18 21:23:00,14.0,-99.9,-100.00,NNW,329,16.0,-999.0,0,-99.99,,,-99.99,,2013-03-19 02:23:00,
2013-03-18 21:33:00,14.0,-99.9,-100.00,NNW,337,17.0,-999.0,0,-99.99,,,-99.99,,2013-03-19 02:33:00,
2013-03-18 21:43:00,14.0,-99.9,-100.00,NNW,327,21.0,-999.0,0,-99.99,,,-99.99,,2013-03-19 02:43:00,
2013-03-18 21:53:00,14.0,-99.9,-100.00,NNW,327,22.0,-999.0,0,-99.99,,,-99.99,,2013-03-19 02:53:00,
2013-03-18 22:02:00,14.0,-99.9,-100.00,NW,324,23.0,-999.0,0,-99.99,,,-99.99,,2013-03-19 03:02:00,
2013-03-18 22:13:00,14.0,-99.9,-100.00,NNW,335,16.0,-999.0,0,-99.99,,,-99.99,,2013-03-19 03:13:00,
2013-03-18 22:23:00,13.0,-99.9,-100.00,NW,323,15.0,-999.0,0,-99.99,,,-99.99,,2013-03-19 03:23:00,
2013-03-18 22:33:00,13.0,-99.9,-100.00,NW,321,16.0,-999.0,0,-99.99,,,-99.99,,2013-03-19 03:33:00,
2013-03-18 22:43:00,13.0,-99.9,-100.00,NNW,328,16.0,-999.0,0,-99.99,,,-99.99,,2013-03-19 03:43:00,
2013-03-18 22:54:00,13.0,-99.9,-100.00,NNW,333,15.0,-999.0,0,-99.99,,,-99.99,,2013-03-19 03:54:00,
2013-03-18 23:03:00,13.0,-99.9,-100.00,NNW,338,15.0,-999.0,0,-99.99,,,-99.99,,2013-03-19 04:03:00,
2013-03-18 23:13:00,13.0,-99.9,-100.00,NNW,328,12.0,-999.0,0,-99.99,,,-99.99,,2013-03-19 04:13:00,
2013-03-18 23:23:00,13.0,-99.9,-100.00,NNW,334,11.0,-999.0,0,-99.99,,,-99.99,,2013-03-19 04:23:00,
2013-03-18 23:34:00,12.0,-99.9,-100.00,NNW,338,13.0,-999.0,0,-99.99,,,-99.99,,2013-03-19 04:34:00,
2013-03-18 23:43:00,12.0,-99.9,-100.00,NNW,330,10.0,-999.0,0,-99.99,,,-99.99,,2013-03-19 04:43:00,
2013-03-18 23:53:00,12.0,-99.9,-100.00,NNW,336,11.0,-999.0,0,-99.99,,,-99.99,,2013-03-19 04:53:00,